TimeCST,TemperatureF,Dew PointF,Humidity,Sea Level PressureIn,VisibilityMPH,Wind Direction,Wind SpeedMPH,Gust SpeedMPH,PrecipitationIn,Events,Conditions,WindDirDegrees,DateUTC
12:15 AM,24.8,24.8,100,30.35,8.0,North,8.1,-,N/A,,Partly Cloudy,350,2013-03-02 06:15:00
12:35 AM,24.8,24.8,100,30.35,8.0,North,8.1,-,N/A,,Mostly Cloudy,350,2013-03-02 06:35:00
12:55 AM,24.8,24.8,100,30.36,7.0,North,8.1,-,N/A,,Scattered Clouds,360,2013-03-02 06:55:00
1:15 AM,24.8,24.8,100,30.36,8.0,North,6.9,-,N/A,,Clear,360,2013-03-02 07:15:00
1:35 AM,24.8,24.8,100,30.37,8.0,NNW,8.1,-,N/A,,Clear,340,2013-03-02 07:35:00
1:55 AM,24.8,23.0,93,30.38,8.0,North,8.1,-,N/A,,Scattered Clouds,350,2013-03-02 07:55:00
2:15 AM,23.0,23.0,100,30.38,7.0,North,6.9,-,N/A,,Partly Cloudy,350,2013-03-02 08:15:00
2:35 AM,23.0,23.0,100,30.37,7.0,North,8.1,-,N/A,,Clear,360,2013-03-02 08:35:00
2:55 AM,23.0,23.0,100,30.37,7.0,North,8.1,-,N/A,,Clear,350,2013-03-02 08:55:00
3:15 AM,23.0,23.0,100,30.37,7.0,NNW,8.1,-,N/A,,Clear,340,2013-03-02 09:15:00
3:35 AM,23.0,23.0,100,30.36,6.0,NNW,6.9,-,N/A,,Clear,340,2013-03-02 09:35:00
3:55 AM,23.0,23.0,100,30.36,7.0,NNW,8.1,-,N/A,,Clear,340,2013-03-02 09:55:00
4:15 AM,23.0,23.0,100,30.36,7.0,NNW,6.9,-,N/A,,Clear,340,2013-03-02 10:15:00
4:35 AM,23.0,23.0,100,30.36,7.0,NNW,6.9,-,N/A,,Clear,330,2013-03-02 10:35:00
4:55 AM,23.0,23.0,100,30.36,7.0,NNW,6.9,-,N/A,,Clear,340,2013-03-02 10:55:00
5:15 AM,23.0,23.0,100,30.37,7.0,NW,6.9,-,N/A,,Clear,320,2013-03-02 11:15:00
5:35 AM,23.0,23.0,100,30.37,6.0,NW,8.1,-,N/A,,Clear,320,2013-03-02 11:35:00
5:55 AM,23.0,23.0,100,30.38,5.0,NNW,5.8,-,N/A,,Clear,330,2013-03-02 11:55:00
6:15 AM,23.0,23.0,100,30.38,6.0,NNW,6.9,-,N/A,,Clear,330,2013-03-02 12:15:00
6:35 AM,23.0,23.0,100,30.38,6.0,North,-9999.0,-,N/A,,Clear,0,2013-03-02 12:35:00
6:55 AM,23.0,23.0,100,30.39,5.0,North,-9999.0,-,N/A,,Clear,0,2013-03-02 12:55:00
7:15 AM,23.0,23.0,100,30.39,5.0,North,-9999.0,-,N/A,,Clear,0,2013-03-02 13:15:00
7:35 AM,24.8,23.0,93,30.39,5.0,North,-9999.0,-,N/A,,Clear,0,2013-03-02 13:35:00
7:55 AM,24.8,24.8,100,30.39,5.0,North,-9999.0,-,N/A,,Clear,0,2013-03-02 13:55:00
8:15 AM,26.6,24.8,93,30.39,7.0,North,-9999.0,-,N/A,,Clear,0,2013-03-02 14:15:00
8:35 AM,28.4,24.8,86,30.40,9.0,NNW,8.1,-,N/A,,Clear,340,2013-03-02 14:35:00
8:55 AM,28.4,23.0,80,30.41,10.0,NNW,8.1,-,N/A,,Clear,340,2013-03-02 14:55:00
9:15 AM,30.2,24.8,80,30.42,10.0,NNW,6.9,-,N/A,,Clear,340,2013-03-02 15:15:00
9:35 AM,32.0,23.0,69,30.41,10.0,NNW,6.9,-,N/A,,Clear,330,2013-03-02 15:35:00
9:55 AM,32.0,23.0,69,30.40,10.0,NNW,6.9,-,N/A,,Clear,330,2013-03-02 15:55:00
10:15 AM,32.0,23.0,69,30.40,10.0,NNW,8.1,-,N/A,,Clear,340,2013-03-02 16:15:00
10:55 AM,35.6,23.0,60,30.39,10.0,NW,5.8,-,N/A,,Clear,310,2013-03-02 16:55:00
11:15 AM,35.6,24.8,65,30.38,10.0,WNW,6.9,-,N/A,,Clear,300,2013-03-02 17:15:00
11:35 AM,37.4,23.0,56,30.38,10.0,North,4.6,-,N/A,,Clear,350,2013-03-02 17:35:00
11:55 AM,39.2,23.0,52,30.37,10.0,NE,6.9,-,N/A,,Clear,50,2013-03-02 17:55:00
12:15 PM,39.2,21.2,49,30.36,10.0,Calm,Calm,-,N/A,,Clear,0,2013-03-02 18:15:00
12:35 PM,41.0,23.0,49,30.35,10.0,WNW,5.8,-,N/A,,Clear,300,2013-03-02 18:35:00
12:55 PM,41.0,24.8,53,30.33,10.0,North,-9999.0,-,N/A,,Scattered Clouds,0,2013-03-02 18:55:00
1:15 PM,41.0,24.8,53,30.31,10.0,Calm,Calm,-,N/A,,Mostly Cloudy,0,2013-03-02 19:15:00
1:35 PM,42.8,23.0,46,30.31,10.0,North,3.5,-,N/A,,Partly Cloudy,360,2013-03-02 19:35:00
1:55 PM,44.6,24.8,46,30.30,10.0,North,-9999.0,-,N/A,,Clear,0,2013-03-02 19:55:00
2:15 PM,44.6,26.6,49,30.29,10.0,WSW,5.8,-,N/A,,Clear,240,2013-03-02 20:15:00
2:55 PM,46.4,26.6,46,30.28,10.0,Calm,Calm,-,N/A,,Clear,0,2013-03-02 20:55:00
3:15 PM,46.4,26.6,46,30.28,10.0,Calm,Calm,-,N/A,,Clear,0,2013-03-02 21:15:00
3:35 PM,46.4,28.4,50,30.27,10.0,Calm,Calm,-,N/A,,Clear,0,2013-03-02 21:35:00
4:15 PM,48.2,28.4,46,30.26,10.0,Calm,Calm,-,N/A,,Clear,0,2013-03-02 22:15:00
4:35 PM,48.2,28.4,46,30.25,10.0,Calm,Calm,-,N/A,,Clear,0,2013-03-02 22:35:00
4:55 PM,48.2,30.2,50,30.24,10.0,North,-9999.0,-,N/A,,Clear,0,2013-03-02 22:55:00
5:15 PM,48.2,28.4,46,30.24,10.0,North,-9999.0,-,N/A,,Clear,0,2013-03-02 23:15:00
5:35 PM,48.2,30.2,50,30.23,10.0,North,-9999.0,-,N/A,,Clear,0,2013-03-02 23:35:00
5:55 PM,46.4,30.2,53,30.23,10.0,North,-9999.0,-,N/A,,Clear,0,2013-03-02 23:55:00
6:15 PM,44.6,32.0,61,30.23,10.0,North,-9999.0,-,N/A,,Clear,0,2013-03-03 00:15:00
6:35 PM,44.6,30.2,57,30.23,10.0,SE,5.8,-,N/A,,Clear,140,2013-03-03 00:35:00
6:55 PM,41.0,30.2,65,30.23,10.0,SE,6.9,-,N/A,,Clear,140,2013-03-03 00:55:00
7:15 PM,41.0,30.2,65,30.23,10.0,SE,6.9,-,N/A,,Clear,140,2013-03-03 01:15:00
7:35 PM,41.0,28.4,61,30.22,10.0,SE,6.9,-,N/A,,Clear,140,2013-03-03 01:35:00
7:55 PM,39.2,28.4,65,30.22,10.0,SE,8.1,-,N/A,,Scattered Clouds,140,2013-03-03 01:55:00
8:15 PM,39.2,28.4,65,30.21,10.0,SE,8.1,-,N/A,,Partly Cloudy,140,2013-03-03 02:15:00
8:55 PM,37.4,28.4,70,30.22,10.0,SSE,8.1,-,N/A,,Clear,160,2013-03-03 02:55:00
9:15 PM,37.4,28.4,70,30.22,10.0,SSE,9.2,-,N/A,,Partly Cloudy,160,2013-03-03 03:15:00
9:55 PM,35.6,28.4,75,30.21,10.0,SSE,9.2,-,N/A,,Clear,160,2013-03-03 03:55:00
10:15 PM,35.6,28.4,75,30.21,10.0,SSE,9.2,-,N/A,,Clear,150,2013-03-03 04:15:00
10:35 PM,35.6,26.6,70,30.21,10.0,SSE,9.2,-,N/A,,Clear,150,2013-03-03 04:35:00
10:55 PM,35.6,26.6,70,30.20,10.0,SSE,10.4,-,N/A,,Clear,160,2013-03-03 04:55:00
11:15 PM,37.4,26.6,65,30.19,10.0,South,10.4,-,N/A,,Clear,170,2013-03-03 05:15:00
11:35 PM,37.4,26.6,65,30.19,10.0,South,9.2,-,N/A,,Clear,170,2013-03-03 05:35:00
11:55 PM,37.4,28.4,70,30.17,10.0,South,10.4,-,N/A,,Clear,180,2013-03-03 05:55:00